690  
FPUS82 KCHS 231927  
OPUCHS  
 
TEST   
..KCHS/KSAV GATEWAY OBSERVATIONS
 
TEST  
NATIONAL WEATHER SERVICE CHARLESTON SC  
200 PM EST SUN FEB 23 2020  
 
NOTE: "FAIR" INDICATES FEW OR NO CLOUDS BELOW 12,000 FEET WITH NO  
SIGNIFICANT WEATHER AND/OR OBSTRUCTIONS TO VISIBILITY.  
 
SCZ050-WAZ558-NCZ071-TXZ119-213-PAZ071-DCZ001-FLZ074-172-MI076-  
NYZ176-178-MAZ016-IL014-TNZ027-NJZ106-GAZ044-MD014-232000-  
   
..GATEWAY OBSERVATIONS FOR CHARLESTON INTERNATIONAL
 
 
 
CITY SKY/WX TMP DP RH WIND PRES REMARKS  
CHAS AIRPORT PTSUNNY 63 22 20 NE5 30.23F  
SEATTLE PTSUNNY 46 38 73 SW22G32 29.95R  
CHARLOTTE PTSUNNY 59 27 29 S10 30.20F  
DALLAS DFW CLOUDY 58 52 80 S10 30.00F  
DALLAS LOVE CLOUDY 56 50 80 SE10 30.02F  
PHILLADELPHIA FAIR 54 9 16 W10 30.16F  
WASH NATIONAL FAIR 57 16 20 S9 30.16F  
BALTIMORE FAIR 58 8 13 S7 30.15F  
MIAMI FAIR 77 52 41 E14G22 30.15F  
DETROIT FAIR 51 25 36 S18 29.94F  
NEWARK FAIR 57 9 14 SW13 30.12F  
LAGUARDIA FAIR 55 9 16 SW10 30.12F  
J F K FAIR 53 15 22 SW16 30.15F  
BOSTON LOGAN FAIR 56 21 25 W15 30.06F  
FT. LAUDERDALE FAIR 74 52 46 E15 30.14F  
CHICAGO O'HARE FAIR 52 31 44 W13 29.91F  
CHICAGO MIDWAY FAIR 53 33 46 SW15G21 29.92F  
HOUSTON BUSH CLOUDY 68 55 63 SE13 30.05F  
HOUSTON HOBBY CLOUDY 68 55 63 S16 30.07F  
NASHVILLE CLOUDY 56 30 37 S13 30.17F  
ATLANTA PTSUNNY 56 25 30 SW6 30.22F  
LONDON HEATHRW N/A 48 34 57 NW3 30.21S  
 

 
 
GAZ044-118-TXZ119-213-NCZ071-DCZ001-MDZ014-506-PAZ021-071-NJZ106-  
NYZ176-178-MAZ106-OHZ011-021-055-MIZ076-KYZ091-ILZ014-INZ047-  
MNZ060-ONZ431-232000-  
   
..GATEWAY OBSERVATIONS FOR SAVANNAH INTERNATIONAL
 
 
 
CITY SKY/WX TMP DP RH WIND PRES REMARKS  
SAVANNAH ARPT PTSUNNY 66 33 29 VRB3 30.24F  
ATLANTA PTSUNNY 56 25 30 SW6 30.22F  
CHARLOTTE PTSUNNY 59 27 29 S10 30.20F  
DALLAS DFW CLOUDY 58 52 80 S10 30.00F  
HOUSTON BUSH CLOUDY 68 55 63 SE13 30.05F  
WASH NATIONAL FAIR 57 16 20 S9 30.16F  
WASH DULLES FAIR 57 9 14 S9 30.14F  
BALTIMORE FAIR 58 8 13 S7 30.15F  
PHILADELPHIA FAIR 54 9 16 W10 30.16F  
NEWARK FAIR 57 9 14 SW13 30.12F  
LAGUARDIA FAIR 55 9 16 SW10 30.12F  
J F K FAIR 53 15 22 SW16 30.15F  
BOSTON FAIR 56 21 25 W15 30.06F  
PITTSBURG CLOUDY 49 12 22 SW16 30.07F  
AKRON CLOUDY 47 19 33 SW15G25 30.06F  
CLEVELAND FAIR 52 20 28 SW18G26 30.03F  
CINCINNATI CLOUDY 50 23 34 S10 30.08F  
COLUMBUS CLOUDY 48 23 37 SW20 30.09F  
DETROIT FAIR 51 25 36 S18 29.94F  
CHICAGO O'HARE FAIR 52 31 44 W13 29.91F  
MINNEAPOLIS FAIR 44 27 51 W14G22 29.87S  
INDIANAPOLIS FAIR 50 28 42 SW12G22 30.03F  
TORONTO CANADA PTSUNNY 48 28 46 S14G22 29.94F  
 

 
 
 
CLICK HERE TO GO TO PREVIOUS BULLETINS.

The Nexlab SC Page
The Nexlab GA Page Main Text Page